Evanston, WY

11:51 AM MDT on July 25, 2017 (GMT -0600)
Evanston-Uinta County Burns

Weather History for KEVW - October, 2012

Change the Weather History Date:

Saturday, October 6, 2012

  Actual Average Record
Temperature  
Mean Temperature 38 °F 48 °F  
Max Temperature 52 °F 60 °F 71 °F (1996)
Min Temperature 23 °F 35 °F 23 °F (2012)
Degree Days  
Heating Degree Days 27 17  
Month to date heating degree days 101 97  
Since 1 July heating degree days 271 494  
Cooling Degree Days 0 0  
Month to date cooling degree days 0 0  
Year to date cooling degree days 346 162  
Moisture  
Dew Point 7 °F    
Average Humidity 32    
Maximum Humidity 50    
Minimum Humidity 13    
Precipitation  
Precipitation 0.00 in 0.03 in 0.18 in (2006)
Month to date precipitation 0.00 0.17  
Year to date precipitation 3.44 9.51  
Sea Level Pressure  
Sea Level Pressure 30.15 in    
Wind  
Wind Speed 5 mph (ENE)    
Max Wind Speed 10 mph    
Max Gust Speed -    
Visibility 10 miles    
Events      
T = Trace of Precipitation, MM = Missing Value Source: NWS Daily Summary

Daily Weather History Graph

Daily Weather History Graph

Search for Another Location

Airport or City:

Trip Planner

Search our weather history database for the weather conditions in past years. The results will help you decide how hot, cold, wet, or windy it might be!

Date:

Astronomy

Oct. 06, 2012 Rise Set
Actual Time 7:26 AM MDT 6:56 PM MDT
Civil Twilight 6:59 AM MDT 7:24 PM MDT
Nautical Twilight 6:27 AM MDT 7:56 PM MDT
Astronomical Twilight 5:54 AM MDT 8:28 PM MDT
Moon 11:12 PM MDT (10/6) 1:26 PM MDT (10/6)
Length of Visible Light 12h 25m
Length of Day
11h 30m
Waning Gibbous, 65% of the Moon is Illuminated
Oct 6
Waning Gibbous
Oct 8
Last Quarter
Oct 15
New
Oct 21
First Quarter
Oct 29
Full

Hourly Weather History & Observations

Time (MDT) Temp. Windchill Dew Point Humidity Pressure Visibility Wind Dir Wind Speed Gust Speed Precip Events Conditions
12:53 AM 33.1 °F 30.0 °F 8.1 °F 35% 30.11 in 10.0 mi East 3.5 mph - N/A   Clear
1:53 AM 35.1 °F 32.2 °F 8.1 °F 33% 30.10 in 10.0 mi NE 3.5 mph - N/A   Clear
2:53 AM 30.9 °F 27.5 °F 7.0 °F 37% 30.13 in 10.0 mi NE 3.5 mph - N/A   Clear
3:53 AM 30.9 °F - 7.0 °F 37% 30.12 in 10.0 mi Calm Calm - N/A   Clear
4:53 AM 27.0 °F 18.7 °F 5.0 °F 39% 30.16 in 10.0 mi ENE 8.1 mph - N/A   Clear
5:53 AM 28.0 °F 21.7 °F 6.1 °F 39% 30.17 in 10.0 mi East 5.8 mph - N/A   Clear
6:53 AM 26.1 °F 19.4 °F 5.0 °F 41% 30.22 in 10.0 mi East 5.8 mph - N/A   Clear
7:53 AM 23.0 °F 12.4 °F 7.0 °F 50% 30.26 in 10.0 mi East 10.4 mph - N/A   Clear
8:53 AM 27.0 °F 18.0 °F 12.0 °F 53% 30.26 in 10.0 mi East 9.2 mph - N/A   Clear
9:53 AM 32.0 °F 27.5 °F 12.0 °F 44% 30.25 in 10.0 mi East 4.6 mph - N/A   Clear
10:53 AM 36.0 °F 31.1 °F 12.0 °F 37% 30.24 in 10.0 mi East 5.8 mph - N/A   Clear
11:53 AM 39.9 °F 37.8 °F 10.9 °F 31% 30.19 in 10.0 mi Variable 3.5 mph - N/A   Clear
12:53 PM 44.1 °F 42.5 °F 7.0 °F 22% 30.17 in 10.0 mi Variable 3.5 mph - N/A   Clear
1:53 PM 46.9 °F - 7.0 °F 20% 30.12 in 10.0 mi Variable 6.9 mph - N/A   Clear
2:53 PM 48.0 °F - 3.9 °F 16% 30.09 in 10.0 mi Variable 4.6 mph - N/A   Clear
3:53 PM 48.9 °F - 1.9 °F 15% 30.08 in 10.0 mi Calm Calm - N/A   Clear
4:53 PM 52.0 °F - 1.9 °F 13% 30.06 in 10.0 mi WNW 9.2 mph - N/A   Overcast
5:53 PM 52.0 °F - 1.0 °F 12% 30.05 in 10.0 mi Variable 5.8 mph - N/A   Clear
6:53 PM 45.0 °F 41.2 °F 10.0 °F 24% 30.12 in 10.0 mi ENE 6.9 mph - N/A   Scattered Clouds
7:53 PM 39.9 °F 36.7 °F 9.0 °F 28% 30.18 in 10.0 mi ENE 4.6 mph - N/A   Scattered Clouds
8:53 PM 39.0 °F - 7.0 °F 27% 30.18 in 10.0 mi Calm Calm - N/A   Clear
9:53 PM 39.0 °F 35.7 °F 6.1 °F 26% 30.14 in 10.0 mi North 4.6 mph - N/A   Clear
10:53 PM 35.1 °F 32.2 °F 7.0 °F 31% 30.16 in 10.0 mi SE 3.5 mph - N/A   Clear
11:53 PM 36.0 °F - 1.0 °F 23% 30.13 in 10.0 mi Calm Calm - N/A   Clear